This demonstration page uses our WeatherBlox Daily Observations layout. Learn more.

Left ArrowRight Arrow

41.55636, -103.73856

Hourly Observations for December 26, 2020

Temp ( °F °C ) Dew Point ( °F °C ) Humidity (%) Winds ( mph kmh ) Pressure ( in mb ) Visibility ( mi km ) Precip ( " mm )
12:56 am 00:56 Clear 30 -1.3 12 -11.2 47 47 SW 12 19 29.92 1013 10 16 0.00 0.00
1:56 am 01:56 Clear 33 0.3 12 -11.3 42 42 WSW 17 28 29.91 1013 10 16 0.00 0.00
2:56 am 02:56 Clear 33 0.3 11 -11.6 41 41 SW 12 19 29.91 1013 10 16 0.00 0.00
3:56 am 03:56 Clear 33 0.4 10 -12.1 39 39 SW 8 13 29.91 1013 10 16 0.00 0.00
4:56 am 04:56 Clear 34 0.9 11 -11.8 38 38 WNW 3 6 29.91 1013 10 16 0.00 0.00
5:56 am 05:56 Clear 37 2.7 10 -12.2 33 33 WNW 5 7 29.90 1013 10 16 0.00 0.00
6:56 am 06:56 Clear 39 3.8 10 -12 31 31 NW 6 9 29.90 1013 10 16 0.00 0.00
7:56 am 07:56 Sunny 40 4.2 11 -11.4 31 31 W 14 22 29.90 1013 10 16 0.00 0.00
8:56 am 08:56 Sunny 49 9.2 10 -12 21 21 W 15 24 29.90 1013 10 16 0.00 0.00
9:56 am 09:56 Sunny 51 10.3 9 -12.9 18 18 WNW 16 26 29.89 1012 10 16 0.00 0.00
10:56 am 10:56 Sunny 53 11.5 10 -12.2 18 18 WNW 8 13 29.86 1011 10 16 0.00 0.00
11:56 am 11:56 Sunny 54 12 9 -12.6 17 17 NNW 7 11 29.82 1010 10 16 0.00 0.00
12:56 pm 12:56 Sunny 54 12.4 10 -12.5 16 16 Calm 29.79 1009 10 16 0.00 0.00
1:56 pm 13:56 Sunny 54 12.4 11 -11.9 17 17 Calm 29.75 1008 10 16 0.00 0.00
2:58 pm 14:58 Mostly Cloudy 51 10.7 11 -11.5 20 20 W 6 9 29.69 1005 10 16 0.00 0.00
3:58 pm 15:58 Mostly Cloudy 48 8.9 11 -11.6 22 22 WNW 6 9 29.70 1006 10 16 0.00 0.00
4:58 pm 16:58 Mostly Cloudy 46 7.9 12 -11.1 25 25 SW 5 7 29.73 1007 10 16 0.00 0.00
5:58 pm 17:58 Cloudy 48 9 14 -10.2 25 25 NW 18 30 29.74 1007 10 16 0.00 0.00
6:58 pm 18:58 Cloudy 46 7.5 23 -4.8 42 42 WNW 20 31 29.77 1008 10 16 0.00 0.00
7:58 pm 19:58 Mostly Cloudy 44 6.9 22 -5.4 42 42 WNW 21 33 29.76 1008 10 16 0.00 0.00
8:58 pm 20:58 Mostly Cloudy 42 5.5 23 -4.8 48 48 WNW 17 28 29.79 1009 10 16 0.00 0.00
9:58 pm 21:58 Mostly Cloudy 39 3.9 23 -4.9 53 53 NW 9 15 29.84 1010 10 16 0.00 0.00
10:58 pm 22:58 Mostly Cloudy 39 3.7 23 -4.9 54 54 WNW 15 24 29.84 1011 10 16 0.00 0.00
11:58 pm 23:58 Mostly Cloudy 40 4.5 23 -4.8 51 51 NW 25 41 29.84 1010 10 16 0.00 0.00

Powered by AerisWeather